Weslaco, TX

10:42 PM CDT on July 21, 2017 (GMT -0500)
Weslaco

Weather History for KT65 - October, 2013

Change the Weather History Date:

Tuesday, October 22, 2013

  Actual Average (KMFE) Record (KMFE)
Temperature  
Mean Temperature 73 °F -  
Max Temperature 80 °F 83 °F 94 °F (1994)
Min Temperature 64 °F 64 °F 46 °F (1976)
Cooling Degree Days 8    
Growing Degree Days 23 (Base 50)    
Moisture  
Dew Point 63 °F    
Average Humidity 76    
Maximum Humidity 92    
Minimum Humidity 50    
Precipitation  
Precipitation 0.00 in - - ()
Sea Level Pressure  
Sea Level Pressure 30.04 in    
Wind  
Wind Speed 6 mph (North)    
Max Wind Speed 13 mph    
Max Gust Speed 21 mph    
Visibility 8 miles    
Events Rain    
Averages and records for this station are not official NWS values.
T = Trace of Precipitation, MM = Missing Value Source: NWS Daily Summary

Daily Weather History Graph

Daily Weather History Graph

Search for Another Location

Airport or City:

Trip Planner

Search our weather history database for the weather conditions in past years. The results will help you decide how hot, cold, wet, or windy it might be!

Date:

Astronomy

Oct. 22, 2013 Rise Set
Actual Time 7:34 AM CDT 6:57 PM CDT
Civil Twilight 7:11 AM CDT 7:20 PM CDT
Nautical Twilight 6:44 AM CDT 7:47 PM CDT
Astronomical Twilight 6:17 AM CDT 8:14 PM CDT
Moon 9:53 PM CDT 10:50 AM CDT
Length of Visible Light 12h 09m
Length of Day
11h 22m
Waning Gibbous, 86% of the Moon is Illuminated
Oct 22
Waning Gibbous
Oct 26
Last Quarter
Nov 3
New
Nov 9
First Quarter
Nov 17
Full

Hourly Weather History & Observations

Time (CDT) Temp. Heat Index Dew Point Humidity Pressure Visibility Wind Dir Wind Speed Gust Speed Precip Events Conditions
12:15 AM 71.2 °F - 68.0 °F 89% 29.95 in 10.0 mi NE 4.6 mph - N/A Rain Rain
12:35 AM 70.5 °F - 67.3 °F 89% 29.95 in 10.0 mi NE 3.5 mph - N/A   Light Drizzle
12:55 AM 70.2 °F - 66.7 °F 89% 29.95 in 10.0 mi Calm Calm - N/A   Scattered Clouds
1:15 AM 70.0 °F - 66.7 °F 89% 29.95 in 10.0 mi Calm Calm - N/A   Scattered Clouds
1:35 AM 70.0 °F - 66.9 °F 90% 29.95 in 10.0 mi North 4.6 mph - N/A Rain Light Rain
1:55 AM 70.0 °F - 67.1 °F 91% 29.96 in 10.0 mi North 5.8 mph - N/A   Scattered Clouds
2:15 AM 70.0 °F - 67.1 °F 91% 29.96 in 10.0 mi North 4.6 mph - N/A   Clear
2:35 AM 69.8 °F - 66.7 °F 90% 29.96 in 10.0 mi North 4.6 mph - N/A   Clear
2:55 AM 69.3 °F - 66.6 °F 91% 29.96 in 10.0 mi North 4.6 mph - N/A   Clear
3:15 AM 69.1 °F - 66.4 °F 91% 29.96 in 7.0 mi North 4.6 mph - N/A   Clear
3:35 AM 69.1 °F - 66.4 °F 91% 29.96 in 7.0 mi North 5.8 mph - N/A   Scattered Clouds
3:55 AM 68.9 °F - 66.2 °F 91% 29.97 in 7.0 mi North 4.6 mph - N/A   Scattered Clouds
4:15 AM 68.4 °F - 65.5 °F 90% 29.97 in 7.0 mi North 4.6 mph - N/A   Clear
4:35 AM 68.4 °F - 65.7 °F 91% 29.98 in 7.0 mi North 3.5 mph - N/A   Scattered Clouds
4:55 AM 68.4 °F - 65.7 °F 91% 29.97 in 5.0 mi NNW 5.8 mph - N/A   Mostly Cloudy
5:15 AM 68.4 °F - 65.8 °F 92% 29.97 in 4.0 mi NNW 8.1 mph - N/A   Overcast
5:35 AM 68.4 °F - 66.0 °F 92% 29.98 in 4.0 mi NNW 8.1 mph - N/A   Overcast
5:55 AM 68.9 °F - 66.4 °F 92% 30.00 in 4.0 mi North 9.2 mph - N/A   Overcast
6:15 AM 69.1 °F - 66.6 °F 92% 30.00 in 4.0 mi North 12.7 mph 16.1 mph N/A   Overcast
6:35 AM 69.3 °F - 66.7 °F 92% 30.01 in 5.0 mi North 10.4 mph 16.1 mph N/A   Overcast
6:55 AM 69.1 °F - 66.4 °F 91% 30.02 in 5.0 mi North 11.5 mph - N/A   Overcast
7:15 AM 68.9 °F - 66.2 °F 91% 30.02 in 4.0 mi North 9.2 mph - N/A   Overcast
7:35 AM 68.9 °F - 66.2 °F 91% 30.03 in 5.0 mi North 10.4 mph - N/A   Overcast
7:55 AM 69.3 °F - 66.2 °F 90% 30.04 in 7.0 mi North 8.1 mph - N/A   Overcast
8:15 AM 69.4 °F - 66.6 °F 91% 30.05 in 5.0 mi North 6.9 mph - N/A   Overcast
8:35 AM 69.8 °F - 66.9 °F 91% 30.05 in 5.0 mi North 3.5 mph - N/A   Overcast
8:55 AM 70.3 °F - 67.1 °F 89% 30.06 in 7.0 mi North 3.5 mph - N/A   Overcast
9:15 AM 69.3 °F - 65.1 °F 87% 30.08 in 7.0 mi North 12.7 mph 20.7 mph N/A   Overcast
9:35 AM 68.9 °F - 64.6 °F 86% 30.08 in 7.0 mi North 9.2 mph 17.3 mph N/A   Overcast
9:55 AM 69.3 °F - 64.4 °F 84% 30.09 in 7.0 mi NNE 11.5 mph 17.3 mph N/A   Overcast
10:15 AM 68.9 °F - 63.7 °F 83% 30.09 in 7.0 mi North 10.4 mph 17.3 mph N/A   Overcast
10:35 AM 68.7 °F - 63.3 °F 83% 30.10 in 7.0 mi North 5.8 mph - N/A   Overcast
10:55 AM 68.5 °F - 63.0 °F 82% 30.11 in 5.0 mi North 9.2 mph - N/A   Haze
11:15 AM 68.9 °F - 62.2 °F 79% 30.12 in 7.0 mi North 11.5 mph - N/A   Overcast
11:35 AM 70.9 °F - 62.4 °F 75% 30.12 in 7.0 mi North 8.1 mph - N/A   Overcast
11:55 AM 71.1 °F - 62.2 °F 74% 30.12 in 7.0 mi NNW 10.4 mph - N/A   Overcast
12:15 PM 72.0 °F - 63.0 °F 73% 30.11 in 10.0 mi North 9.2 mph - N/A   Overcast
12:35 PM 72.7 °F - 62.2 °F 70% 30.11 in 7.0 mi North 10.4 mph - N/A   Overcast
12:55 PM 73.9 °F - 61.5 °F 65% 30.10 in 7.0 mi North 11.5 mph - N/A   Overcast
1:15 PM 75.9 °F - 62.1 °F 62% 30.09 in 7.0 mi NNW 12.7 mph - N/A   Mostly Cloudy
1:35 PM 77.2 °F - 62.1 °F 59% 30.09 in 7.0 mi NNW 10.4 mph - N/A   Scattered Clouds
1:55 PM 78.6 °F - 62.2 °F 57% 30.07 in 10.0 mi North 10.4 mph - N/A   Mostly Cloudy
2:15 PM 78.1 °F - 62.1 °F 58% 30.06 in 10.0 mi NNW 12.7 mph 17.3 mph N/A   Mostly Cloudy
2:35 PM 78.3 °F - 61.2 °F 56% 30.05 in 7.0 mi NNW 9.2 mph 18.4 mph N/A   Scattered Clouds
2:55 PM 79.9 °F - 61.7 °F 54% 30.04 in 10.0 mi NNW 10.4 mph 16.1 mph N/A   Clear
3:15 PM 79.0 °F - 61.5 °F 55% 30.04 in 7.0 mi North 11.5 mph 16.1 mph N/A   Scattered Clouds
3:35 PM 79.0 °F - 61.0 °F 54% 30.04 in 7.0 mi NNW 11.5 mph - N/A   Clear
3:55 PM 79.9 °F - 61.0 °F 52% 30.03 in 10.0 mi NNW 11.5 mph 19.6 mph N/A   Clear
4:15 PM 80.1 °F 80.9 °F 59.9 °F 50% 30.02 in 7.0 mi NNW 10.4 mph - N/A   Clear
4:35 PM 79.9 °F - 60.1 °F 51% 30.02 in 10.0 mi NNW 9.2 mph - N/A   Clear
4:55 PM 80.2 °F 81.0 °F 60.3 °F 50% 30.01 in 7.0 mi NNW 9.2 mph - N/A   Clear
5:15 PM 79.3 °F - 60.3 °F 52% 30.01 in 10.0 mi North 8.1 mph - N/A   Scattered Clouds
5:35 PM 78.6 °F - 59.7 °F 52% 30.01 in 7.0 mi North 5.8 mph - N/A   Clear
5:55 PM 77.9 °F - 59.7 °F 53% 30.02 in 10.0 mi North 4.6 mph - N/A   Clear
6:15 PM 77.9 °F - 60.3 °F 54% 30.02 in 7.0 mi North 4.6 mph - N/A   Clear
6:35 PM 76.1 °F - 61.9 °F 61% 30.02 in 10.0 mi NNW 3.5 mph - N/A   Clear
6:55 PM 74.8 °F - 62.1 °F 64% 30.03 in 10.0 mi NNW 3.5 mph - N/A   Clear
7:15 PM 74.3 °F - 61.7 °F 65% 30.04 in 10.0 mi North 3.5 mph - N/A   Clear
7:35 PM 73.0 °F - 61.2 °F 66% 30.04 in 10.0 mi North 3.5 mph - N/A   Clear
7:55 PM 72.0 °F - 60.8 °F 68% 30.05 in 10.0 mi Calm Calm - N/A   Scattered Clouds
8:15 PM 71.8 °F - 61.2 °F 69% 30.06 in 7.0 mi Calm Calm - N/A   Mostly Cloudy
8:35 PM 70.7 °F - 61.7 °F 73% 30.07 in 10.0 mi NNE 3.5 mph - N/A   Mostly Cloudy
8:55 PM 70.7 °F - 61.0 °F 71% 30.08 in 10.0 mi Calm Calm - N/A   Mostly Cloudy
9:35 PM 68.7 °F - 61.3 °F 77% 30.09 in 10.0 mi Calm Calm - N/A   Scattered Clouds
10:15 PM 67.3 °F - 61.3 °F 81% 30.10 in 7.0 mi Calm Calm - N/A   Clear
10:35 PM 67.6 °F - 60.8 °F 79% 30.11 in 10.0 mi Calm Calm - N/A   Clear
10:55 PM 67.5 °F - 59.9 °F 77% 30.11 in 7.0 mi Calm Calm - N/A   Clear
11:15 PM 67.1 °F - 58.8 °F 75% 30.11 in 10.0 mi Calm Calm - N/A   Clear
11:35 PM 66.7 °F - 57.4 °F 72% 30.10 in 10.0 mi North 3.5 mph - N/A   Clear
11:55 PM 64.6 °F - 58.1 °F 79% 30.11 in 10.0 mi Calm Calm - N/A   Clear